Location: Silverdale
(47.6506°N, 122.6941°W)
Time: 10:28:25
(UTC+00:00)

Courier 1B - Pass Details

Date: 07 October 2022
Orbit: 962 x 1209 km, 28.3° (Epoch: 04 December)

Event Time Altitude Azimuth Distance (km) Brightness Sun altitude
Rises 22:09:34 0° 235° (SW) 4,060 11.8 29.3°
Reaches altitude 10° 22:13:40 10° 215° (SW) 3,060 11.8 28.9°
Maximum altitude 22:17:59 16° 180° (S) 2,571 10.7 28.4°
Drops below altitude 10° 22:22:11 10° 145° (SE) 2,961 10.3 27.9°
Sets 22:26:03 0° 125° (SE) 3,866 10.6 27.5°
